Regional Weather Roundup
Issued by NWS

Home | Current Version | Previous Version | Graphics & Text | Print | Product List | Glossary On
Versions: 1 2 3 4 5 6 7 8 9 10 11 12 13 14 15 16 17 18 19 20 21 22 23 24 25 26 27 28 29 30 31 32 33 34 35 36 37 38 39 40 41 42 43 44 45 46 47 48 49 50
000
ASUS45 KCYS 040810
RWRWY

WYOMING REGIONAL WEATHER ROUNDUP
NATIONAL WEATHER SERVICE CHEYENNE WY
200 AM MDT TUE AUG 04 2015

NOTE:  "FAIR" INDICATES FEW OR NO CLOUDS BELOW 12,000 FEET
WITH NO SIGNIFICANT WEATHER AND/OR OBSTRUCTIONS TO VISIBILITY.

WYZ001-040900-
YELLOWSTONE NATIONAL PARK

CITY           SKY/WX    TMP DP  RH WIND       PRES   REMARKS
LK YELLOWSTONE   N/A     50  48  93 CALM      30.24F
W YELLOWSTONE  NOT AVBL

$$
WYZ002>013-054>058-071-098>099-040900-
NORTHERN WYOMING

CITY           SKY/WX    TMP DP  RH WIND       PRES   REMARKS
JACKSON        NOT AVBL
CODY           FAIR      64  52  63 SW3       29.98S
GREYBULL       FAIR      65  48  54 SE5       29.92F
WORLAND        FAIR      65  50  58 SE6       29.94F
SHERIDAN       FAIR      73  45  36 NE7       29.89R
BUFFALO        FAIR      67  49  52 SE9       29.99R
GILLETTE       FAIR      65  50  58 S5        29.96F
HULETT         FAIR      64  55  72 CALM      29.95F
NEWCASTLE      FAIR      72  43  35 MISG      29.95F

$$
WYZ014>020-022>026-101>103-040900-
CENTRAL WYOMING

CITY           SKY/WX    TMP DP  RH WIND       PRES   REMARKS
BIG PINEY      CLOUDY    55  52  89 NW9       30.17S
PINEDALE       CLOUDY    54  54 100 NW7       30.16F
DUBOIS         CLOUDY    52  50  93 NW9       30.15F
LANDER         CLOUDY    58  56  93 SW5       30.03F
RIVERTON       FAIR      59  55  87 NW9       30.03F
CASPER         FAIR      57  53  86 NE8       30.03R
DOUGLAS        FAIR      57  47  69 S3        30.01S

$$
WYZ021-027>030-104>119-040900-
SOUTHERN WYOMING

CITY           SKY/WX    TMP DP  RH WIND       PRES   REMARKS
EVANSTON       FAIR      50  46  86 W3        30.23S
KEMMERER       FAIR      50  50 100 W13       30.21S
FORT BRIDGER   SUNNY     52  52 100 W10       30.23F
ROCK SPRINGS   MOCLDY    54  50  86 W16       30.16S
DIXON          CLOUDY    58  51  79 S8        30.21S
RAWLINS        CLOUDY    56  52  86 SW12      30.15F
SARATOGA       DRIZZLE   54  52  94 S5        30.19S
LARAMIE        LGT RAIN  55  51  86 CALM      30.18F
CHEYENNE       FAIR      64  46  52 W9        30.08F
TORRINGTON     FAIR      63  49  60 E8        29.96F
PINE BLUFFS    FAIR      61  50  67 S6        30.04F

$$



USA.gov is the U.S. government's official web portal to all federal, state and local government web resources and services.